Terminal Aerodrome Forecast
Issued by NWS

Home | Current Version | Previous Version | Text Only | Print | Product List | Glossary On
Versions: 1 2 3 4 5 6 7 8 9 10 11 12 13 14 15 16 17 18 19 20
000
FTUS45 KVEF 110500
TAFHND
TAF
KHND 110538Z 1106/1206 05006KT P6SM BKN110 BKN150 OVC180
     FM111900 14007KT P6SM FEW120
     FM120000 18010KT P6SM FEW120=

USA.gov is the U.S. government's official web portal to all federal, state and local government web resources and services.